Terug naar catalogus

STARLINK-30552

ActiefCommunicatieVLEO
NORAD 57999·PAYLOAD·🇺🇸 United States

Gelanceerd Oct 5, 2023 vanaf Cape Canaveral Space Force Station

Loading…

Volgende Passages (komende 24 uur)

TLE

VersSource: CelesTrak SupGP

Epoch: Sep 15, 2026, 03:01 UTC

1 57999C 23153J   26258.12618056 -.00016488  00000+0 -59702-3 0  2587
2 57999  43.0000  77.6238 0001612 273.4203  81.5759 15.27596840    15

Volg STARLINK-30552 in realtime met AllMySat

Download on the App Store